This is the latest recevied weather packets stored in our database for station/object AD0YN. If no packets are shown the sender has not sent any weather packets the latest 10 day(s).
| Time | Temp. | Humidity | Pressure | Rain* | Wind** | Luminosity | Snow |
|---|---|---|---|---|---|---|---|
| 1777640585 | 8.33° C | 70% | 1018.2 hPa | 0 mm | - | 213 W/m² | - |
| 1777640281 | 7.78° C | 67% | 1018.4 hPa | 0 mm | - | 191 W/m² | - |
| 1777639977 | 7.78° C | 72% | 1018.1 hPa | 0 mm | - | 162 W/m² | - |
| 1777639674 | 7.78° C | 71% | 1018.3 hPa | 0 mm | - | 143 W/m² | - |
| 1777639373 | 7.22° C | 78% | 1018.4 hPa | 0 mm | - | 129 W/m² | - |
| 1777639067 | 6.67° C | 77% | 1018.1 hPa | 0 mm | - | 113 W/m² | - |
| 1777638764 | 6.67° C | 78% | 1018.4 hPa | 0 mm | - | 100 W/m² | - |
| 1777638460 | 6.11° C | 80% | 1018.4 hPa | 0 mm | - | 86 W/m² | - |
| 1777638158 | 5.56° C | 78% | 1018.2 hPa | 0 mm | - | 77 W/m² | - |
| 1777637852 | 5° C | 77% | 1018.3 hPa | 0 mm | - | 68 W/m² | - |
| 1777637550 | 4.44° C | 79% | 1018 hPa | 0 mm | - | 60 W/m² | - |
| 1777637247 | 3.89° C | 82% | 1018.3 hPa | 0 mm | - | 54 W/m² | - |
| 1777636944 | 3.33° C | 87% | 1018.3 hPa | 0 mm | - | 47 W/m² | - |
| 1777636639 | 2.78° C | 91% | 1018.1 hPa | 0 mm | - | 34 W/m² | - |
| 1777636336 | 2.78° C | 90% | 1018.2 hPa | 0 mm | - | 30 W/m² | - |
| 1777636035 | 2.78° C | 90% | 1018 hPa | 0 mm | - | 26 W/m² | - |
| 1777635732 | 2.78° C | 90% | 1017.9 hPa | 0 mm | - | 22 W/m² | - |
| 1777635429 | 2.78° C | 91% | 1017.9 hPa | 0 mm | - | 18 W/m² | - |
| 1777635126 | 2.22° C | 92% | 1018.1 hPa | 0 mm | - | 14 W/m² | - |
| 1777634821 | 2.22° C | 91% | 1017.9 hPa | 0 mm | - | 11 W/m² | - |
| 1777634519 | 2.22° C | 90% | 1017.8 hPa | 0 mm | - | 7 W/m² | - |
| 1777634215 | 2.22° C | 89% | 1017.7 hPa | 0 mm | - | 5 W/m² | - |
| 1777633912 | 2.22° C | 88% | 1017.7 hPa | 0 mm | - | 3 W/m² | - |
| 1777633610 | 2.78° C | 88% | 1017.7 hPa | 0 mm | - | 1 W/m² | - |
| 1777633308 | 2.78° C | 87% | 1017.8 hPa | 0 mm | - | 1 W/m² | - |
* Rain latest hour (hover to see other rain measurements)
** Current wind speed in m/s (hover to see current wind gust speed)